Tracking 19717 objects as of 24-Jun-2019
HD Live streaming from Space Station
objects crossing your sky now

TITAN 3C TRANSTAGE DEB

Track TITAN 3C TRANSTAGE DEB now!


NORAD ID: 36979
Int'l Code: 1965-108DK
Perigee: 1,174.3 km
Apogee: 31,257.8 km
Inclination: 27.1 °
Period: 563.1 minutes
Semi major axis: 22587 km
RCS: 0.0659 m2 (small)
Launch date: December 21, 1965
Source: United States (US)
Launch site: AIR FORCE EASTERN TEST RANGE (AFETR)

Note: This is SATELLITE DEBRIS
aabbcc
Your satellite tracking list
Your tracking list is empty




NASA's NSSDC Master Catalog

Two Line Element Set (TLE):
1 36979U 65108DK  18006.13806014 -.00000074 +00000-0 +00000-0 0  9994
2 36979 027.0738 339.6297 6659472 208.0436 329.9503 02.55749045121235
Source of the keplerian elements: AFSPC